Home > Weather > Victoria > Past weeks

Flag for Canada Weather for the Past 2 Weeks in Victoria, British Columbia, Canada

Now
63 °F

Scattered clouds.


Feels Like: 63 °F
Forecast: 49 / 65 °F
Wind: 3 mph from East

Location: Victoria Int. Airportb. C.

Current Time: Apr 30, 2016 at 8:23:58 PM

Latest Report: Apr 30, 2016 at 7:00 PM


Visibility: 30 mi

Pressure: 30.30 "Hg

Humidity: 45%

Dew Point: 41 °F

Location of VictoriaLocation

Historic Weather in Victoria — Graph

°F

Victoria Temperature Yesterday

Maximum temperature yesterday: 63 °F (at 3:00 PM)
Minimum temperature yesterday: 50 °F (at 4:00 AM)
Average temperature yesterday: 55 °F

High & Low Weather Summary for the Past Weeks

 TemperatureHumidityPressure
High75 °F (Apr 18, 4:00 PM)94% (Apr 19, 6:00 AM)30.38 "Hg (Apr 19, 6:00 AM)
Low39 °F (Apr 26, 6:00 AM)31% (Apr 18, 4:00 PM)29.59 "Hg (Apr 22, 8:00 AM)
Average55 °F70%30.04 "Hg
* Reported Apr 15 7:00 PM — Apr 30 7:00 PM, Victoria, Weather by CustomWeather, © 2016

Note: Actual official high and low records may vary slightly from our data, if they occured in-between our weather recording intervals... More about our weather records

Advertising

Victoria Weather History for the Previous 24 Hours

Scroll right to see more
 ConditionsComfort  
Time TempWeatherWind HumidityBarometerVisibility
7:00 PM
Sat, Apr 30
63 °FScattered clouds.3 mph45%30.30 "Hg30 mi
6:00 PM64 °FPassing clouds.3 mph49%30.32 "Hg30 mi
5:00 PM63 °FScattered clouds.7 mph52%30.33 "Hg30 mi
4:00 PM64 °FPartly sunny.6 mph43%30.33 "Hg30 mi
3:00 PM64 °FPartly sunny.7 mph52%30.34 "Hg30 mi
2:00 PM63 °FPartly sunny.5 mph56%30.35 "Hg30 mi
1:00 PM61 °FPartly sunny.8 mph59%30.36 "Hg30 mi
12:00 PM61 °FPartly sunny.6 mph59%30.37 "Hg30 mi
11:00 AM59 °FPartly sunny.No wind59%30.37 "Hg30 mi
10:00 AM55 °FScattered clouds.No wind59%30.38 "Hg30 mi
9:00 AM54 °FScattered clouds.5 mph67%30.38 "Hg30 mi
8:00 AM48 °FPassing clouds.6 mph82%30.37 "Hg30 mi
7:00 AM46 °FPartly sunny.6 mph87%30.35 "Hg30 mi
6:00 AM43 °FPassing clouds.6 mph93%30.33 "Hg30 mi
5:00 AM43 °FPassing clouds.8 mph93%30.32 "Hg30 mi
4:00 AM43 °FClear.5 mph87%30.30 "Hg30 mi
3:00 AM43 °FClear.5 mph87%30.28 "Hg20 mi
2:00 AM48 °FPassing clouds.6 mph76%30.26 "Hg30 mi
1:00 AM48 °FClear.7 mph82%30.24 "Hg30 mi
12:00 AM50 °FPassing clouds.9 mph76%30.23 "Hg30 mi
11:00 PM
Fri, Apr 29
50 °FPassing clouds.3 mph82%30.21 "Hg30 mi
10:00 PM52 °FPassing clouds.No wind77%30.19 "Hg30 mi
9:00 PM54 °FPassing clouds.5 mph72%30.16 "Hg30 mi
8:00 PM55 °FPassing clouds.6 mph72%30.15 "Hg30 mi
Weather by CustomWeather, © 2016

See weather overviewHow to use our weather pages